Find Starlink 5464

NORAD ID: 54758 Int'l Des: 2022-175 Owner: SPXS Country: US Constellation: starlink operational
LEOCIRCULAR

Live Position

Loading 3D Globe...

About Starlink 5464

Description loading...

Upcoming Passes

Passes for default location (London). Set your location on the main map for personalized predictions.

Altitude History

Loading altitude history...

Two-Line Element Set

1 54758U 22175A 26126.29941201 .00000006 00000-0 18437-4 0 9994
2 54758 53.2166 140.6948 0001162 79.3231 280.7892 15.08839051188688
Epoch: May 6, 2026 • Age: 13 hours

Current Status

Altitude 539.6 km
Velocity 7.59 km/s
Sub-Earth Point 9.26°N, 18.74°W
Launch Date Dec 17, 2022
Age 3.3 years
Type internet

Technical Details

Classification Payload
Mass 305.00 kg
Dry Mass 290.00 kg
Total Mass 305.00 kg
Length 0.20 m
Diameter 2.80 m
Span 9.00 m
Shape Box + pan
Manufacturer SPXS
Bus Type Starlink
Phase Status In Orbit
Owner/State SPXS/US

Most Searched